Weather History for Jacksonville, IL

Change the Weather History Date:

Tuesday, October 23, 2012

  Actual Average (KSPI) Record (KSPI)
Temperature  
Mean Temperature 70 °F 53 °F  
Max Temperature 76 °F 64 °F 85 °F (1963)
Min Temperature 66 °F 42 °F 24 °F (1981)
Degree Days  
Heating Degree Days 0 12  
Month to date heating degree days 217  
Since 1 July heating degree days 298  
Cooling Degree Days 6 0  
Month to date cooling degree days 19  
Year to date cooling degree days 1118  
Growing Degree Days 20 (Base 50)    
Moisture  
Dew Point 64 °F    
Average Humidity 80    
Maximum Humidity 90    
Minimum Humidity 69    
Precipitation  
Precipitation 0.02 in 0.10 in 1.54 in (1951)
Month to date precipitation 2.32  
Year to date precipitation 30.87  
Snow  
Snow 0.00 in 0.00 in 1.70 in (1929)
Month to date snowfall 0.0  
Since 1 July snowfall 0.0  
Since 1 September snowfall 0.0  
Snow Depth -    
Sea Level Pressure  
Sea Level Pressure 29.90 in    
Wind  
Wind Speed 8 mph (South)    
Max Wind Speed 17 mph    
Max Gust Speed 24 mph    
Visibility 10 miles    
Events Rain , Thunderstorm    
T = Trace of Precipitation, MM = Missing Value Source: NWS Daily Summary

Daily Weather History Graph

Daily Weather History Graph

Search for Another Location

Airport:

Trip Planner

Search our weather history database for the weather conditions in past years. The results will help you decide how hot, cold, wet, or windy it might be!

Date:

Astronomy

Oct. 23, 2012 Rise Set
Actual Time 7:20 AM CDT 6:09 PM CDT
Civil Twilight 6:52 AM CDT 6:37 PM CDT
Nautical Twilight 6:21 AM CDT 7:08 PM CDT
Astronomical Twilight 5:49 AM CDT 7:39 PM CDT
Moon 2:52 PM CDT (10/23) 1:13 AM CDT (10/23)
Length of Visible Light 11h 44m
Length of Day
10h 49m
Waxing Gibbous, 67% of the Moon is Illuminated
Oct 23
Waxing Gibbous
Oct 29
Full
Nov 6
Last Quarter
Nov 13
New
Nov 20
First Quarter

Hourly Weather History & Observations

Time (CDT) Temp. Dew Point Humidity Pressure Visibility Wind Dir Wind Speed Gust Speed Precip Events Conditions
12:15 AM 70.0 °F 63.1 °F 79% 29.90 in 10.0 mi SSW 8.1 mph - N/A   Clear
12:35 AM 70.2 °F 63.5 °F 79% 29.89 in 10.0 mi South 6.9 mph - 0.01 in   Clear
12:55 AM 70.0 °F 63.5 °F 80% 29.89 in 10.0 mi South 5.8 mph - 0.01 in   Clear
1:15 AM 69.8 °F 63.5 °F 80% 29.89 in 10.0 mi South 5.8 mph - N/A   Clear
1:35 AM 70.2 °F 63.7 °F 80% 29.88 in 10.0 mi South 4.6 mph - N/A   Clear
1:55 AM 69.8 °F 64.4 °F 83% 29.89 in 10.0 mi SSE 4.6 mph - N/A   Clear
2:15 AM 67.8 °F 62.8 °F 84% 29.89 in 10.0 mi SE 4.6 mph - N/A   Clear
2:35 AM 68.0 °F 62.6 °F 83% 29.91 in 10.0 mi SSW 6.9 mph - N/A   Scattered Clouds
2:55 AM 70.2 °F 63.5 °F 79% 29.90 in 10.0 mi South 9.2 mph - N/A   Mostly Cloudy
3:15 AM 70.0 °F 63.5 °F 80% 29.90 in 10.0 mi SSW 9.2 mph - N/A Thunderstorm Scattered Clouds
3:35 AM 70.2 °F 63.9 °F 80% 29.90 in 10.0 mi SW 12.7 mph - N/A Rain , Thunderstorm Rain
3:55 AM 69.8 °F 64.2 °F 82% 29.91 in 10.0 mi SSW 9.2 mph - N/A Rain Light Rain
4:15 AM 69.4 °F 64.4 °F 84% 29.91 in 10.0 mi SSW 8.1 mph - N/A   Light Drizzle
4:35 AM 69.8 °F 64.4 °F 83% 29.91 in 10.0 mi South 5.8 mph - N/A   Scattered Clouds
4:55 AM 68.5 °F 64.0 °F 85% 29.90 in 10.0 mi South 8.1 mph - N/A   Scattered Clouds
5:15 AM 68.5 °F 63.9 °F 85% 29.91 in 10.0 mi South 6.9 mph - N/A   Clear
5:35 AM 68.0 °F 63.5 °F 85% 29.91 in 10.0 mi South 5.8 mph - N/A   Clear
5:55 AM 67.3 °F 63.5 °F 88% 29.91 in 10.0 mi South 6.9 mph - N/A   Clear
6:15 AM 68.0 °F 64.4 °F 88% 29.91 in 10.0 mi South 5.8 mph - N/A   Clear
6:35 AM 66.9 °F 63.9 °F 90% 29.92 in 10.0 mi South 4.6 mph - N/A   Clear
6:55 AM 67.1 °F 64.0 °F 90% 29.92 in 10.0 mi South 6.9 mph - N/A   Mostly Cloudy
7:15 AM 68.0 °F 64.4 °F 88% 29.92 in 10.0 mi SSW 8.1 mph - N/A   Overcast
7:35 AM 68.0 °F 64.4 °F 88% 29.93 in 10.0 mi SW 6.9 mph - N/A Rain Light Rain
7:55 AM 68.0 °F 64.4 °F 88% 29.93 in 10.0 mi SSW 8.1 mph - N/A   Scattered Clouds
8:15 AM 68.0 °F 64.4 °F 88% 29.94 in 10.0 mi SW 3.5 mph - N/A Rain Light Rain
8:35 AM 68.0 °F 64.4 °F 88% 29.95 in 10.0 mi SW 3.5 mph - N/A   Mostly Cloudy
9:15 AM 68.0 °F 64.6 °F 89% 29.95 in 10.0 mi SSE 5.8 mph - N/A   Mostly Cloudy
9:35 AM 68.0 °F 64.4 °F 88% 29.95 in 10.0 mi SSE 6.9 mph - N/A   Scattered Clouds
9:55 AM 68.2 °F 64.0 °F 87% 29.94 in 10.0 mi South 6.9 mph - N/A   Scattered Clouds
10:15 AM 68.9 °F 64.2 °F 85% 29.93 in 10.0 mi South 4.6 mph - N/A   Scattered Clouds
10:35 AM 69.8 °F 64.4 °F 83% 29.93 in 10.0 mi South 9.2 mph - N/A   Clear
10:55 AM 71.4 °F 63.5 °F 76% 29.94 in 10.0 mi SSW 12.7 mph 18.4 mph N/A   Clear
11:15 AM 71.6 °F 63.7 °F 76% 29.93 in 10.0 mi South 10.4 mph - N/A   Clear
11:35 AM 72.9 °F 63.9 °F 73% 29.93 in 10.0 mi South 17.3 mph - N/A   Scattered Clouds
11:55 AM 73.6 °F 63.9 °F 72% 29.93 in 10.0 mi South 17.3 mph 23.0 mph N/A   Scattered Clouds
12:15 PM 73.4 °F 63.3 °F 71% 29.93 in 10.0 mi SSW 13.8 mph 24.2 mph 0.01 in   Mostly Cloudy
12:35 PM 73.8 °F 63.9 °F 71% 29.92 in 10.0 mi SSW 12.7 mph 20.7 mph 0.01 in Thunderstorm Mostly Cloudy
12:55 PM 73.9 °F 63.9 °F 71% 29.91 in 10.0 mi South 16.1 mph - 0.01 in   Mostly Cloudy
1:15 PM 73.8 °F 63.7 °F 71% 29.90 in 10.0 mi South 15.0 mph 20.7 mph N/A   Mostly Cloudy
1:35 PM 73.8 °F 63.9 °F 71% 29.90 in 10.0 mi SSW 13.8 mph 19.6 mph N/A   Mostly Cloudy
1:55 PM 74.3 °F 64.4 °F 71% 29.89 in 10.0 mi SSE 12.7 mph - N/A   Scattered Clouds
2:15 PM 75.2 °F 64.4 °F 69% 29.89 in 10.0 mi South 11.5 mph - N/A   Scattered Clouds
2:35 PM 75.0 °F 65.3 °F 72% 29.88 in 10.0 mi SSE 11.5 mph - N/A   Scattered Clouds
2:55 PM 75.2 °F 65.3 °F 71% 29.88 in 10.0 mi SE 12.7 mph - N/A   Scattered Clouds
3:15 PM 75.4 °F 65.1 °F 70% 29.87 in 10.0 mi SSE 10.4 mph - N/A   Mostly Cloudy
3:35 PM 75.0 °F 64.8 °F 70% 29.87 in 10.0 mi SSE 11.5 mph - N/A   Scattered Clouds
3:55 PM 75.7 °F 64.8 °F 69% 29.87 in 10.0 mi SSE 11.5 mph 16.1 mph N/A   Mostly Cloudy
4:15 PM 74.7 °F 64.4 °F 70% 29.86 in 10.0 mi South 9.2 mph - N/A   Mostly Cloudy
4:35 PM 74.7 °F 64.4 °F 70% 29.87 in 10.0 mi South 8.1 mph 16.1 mph N/A   Mostly Cloudy
4:55 PM 74.5 °F 64.8 °F 72% 29.87 in 10.0 mi South 12.7 mph - N/A   Mostly Cloudy
5:15 PM 74.3 °F 64.8 °F 72% 29.87 in 10.0 mi SSE 10.4 mph - N/A   Scattered Clouds
5:35 PM 73.6 °F 64.6 °F 73% 29.87 in 10.0 mi SSE 10.4 mph - N/A   Clear
5:55 PM 72.9 °F 64.6 °F 75% 29.87 in 10.0 mi SSE 8.1 mph - N/A   Clear
6:15 PM 71.4 °F 64.4 °F 78% 29.87 in 10.0 mi ESE 6.9 mph - N/A   Clear
6:35 PM 69.8 °F 64.0 °F 82% 29.87 in 10.0 mi ESE 8.1 mph - N/A   Clear
6:55 PM 69.1 °F 63.7 °F 83% 29.88 in 10.0 mi ESE 6.9 mph - N/A   Clear
7:15 PM 68.0 °F 63.0 °F 84% 29.88 in 10.0 mi ESE 6.9 mph - N/A   Clear
7:35 PM 67.8 °F 63.1 °F 85% 29.87 in 10.0 mi ESE 8.1 mph - N/A   Clear
7:55 PM 67.1 °F 62.8 °F 86% 29.88 in 10.0 mi ESE 8.1 mph - N/A   Clear
8:15 PM 66.7 °F 63.0 °F 88% 29.88 in 10.0 mi ESE 9.2 mph - N/A   Clear
8:35 PM 66.2 °F 62.6 °F 88% 29.88 in 10.0 mi SE 8.1 mph - N/A   Clear
8:55 PM 66.2 °F 63.0 °F 89% 29.88 in 10.0 mi SE 8.1 mph - N/A   Clear
9:15 PM 67.3 °F 63.5 °F 88% 29.88 in 10.0 mi SSE 8.1 mph - N/A   Clear
9:35 PM 69.3 °F 63.5 °F 82% 29.88 in 10.0 mi SSE 9.2 mph - N/A   Clear
9:55 PM 69.8 °F 63.5 °F 80% 29.89 in 10.0 mi South 11.5 mph - N/A   Clear
10:15 PM 70.2 °F 63.1 °F 78% 29.89 in 10.0 mi South 13.8 mph 17.3 mph N/A   Clear
10:35 PM 70.3 °F 63.0 °F 77% 29.89 in 10.0 mi South 13.8 mph 19.6 mph N/A   Clear
10:55 PM 70.5 °F 62.6 °F 76% 29.89 in 10.0 mi South 12.7 mph 19.6 mph N/A   Clear
11:15 PM 70.2 °F 62.2 °F 76% 29.90 in 10.0 mi South 11.5 mph - N/A   Clear
11:35 PM 70.2 °F 61.9 °F 75% 29.91 in 10.0 mi South 12.7 mph 17.3 mph N/A   Clear
11:55 PM 69.8 °F 61.7 °F 75% 29.91 in 10.0 mi South 11.5 mph - N/A   Clear